Location: ???????
(55.3754°N, 39.3545°E)
Time: 01:08:45
(UTC+00:00)

SL-16 R/B - Pass Details

Date: 14 April 2026
Orbit: 839 x 849 km, 71.0° (Epoch: 20 May)

Event Time Altitude Azimuth Distance (km) Brightness Sun altitude
Exits shadow 21:13:07 20° 253° (WSW) 1,874 3.8 -24.9°
Maximum altitude 21:16:46 44° 316° (NW) 1,155 3.2 -25.0°
Drops below altitude 10° 21:22:13 10° 29° (NNE) 2,480 5.4 -25.0°
Sets 21:24:48 0° 36° (NE) 3,420 6.2 -25.0°
